GW7187 Weather Reports


time (UTC)temp
F
wind
direction
speed
knots
gust
knots
rain 1hr
in
rain 24hr
in
rain mn
in
humidity
%
barometer
mb
20260906122852 86 234 12.2 13.0 0.00 0.00 0.00 57 1014.2
20260906122355 86 228 17.4 20.9 0.00 0.00 0.00 56 1013.9
20260906121851 87 241 7.8 7.8 0.00 0.00 0.00 55 1013.9
20260906121351 87 230 18.2 21.7 0.00 0.00 0.00 56 1013.9
20260906120851 87 234 13.9 16.5 0.00 0.00 0.00 56 1013.9
20260906120351 87 287 21.7 23.5 0.00 0.00 0.00 55 1014.2
20260906115851 87 234 12.2 14.8 0.00 0.00 0.00 55 1014.6
20260906115352 87 249 13.0 15.6 0.00 0.00 0.00 54 1014.6
20260906114852 87 235 13.9 17.4 0.00 0.00 0.00 53 1014.2
20260906114351 87 240 9.6 10.4 0.00 0.00 0.00 54 1014.2
20260906113851 87 294 14.8 17.4 0.00 0.00 0.00 54 1014.6
20260906113351 87 294 10.4 13.9 0.00 0.00 0.00 54 1014.6
20260906112852 87 297 5.2 6.1 0.00 0.00 0.00 53 1014.6
20260906112351 88 291 15.6 17.4 0.00 0.00 0.00 54 1014.6
20260906111851 87 239 10.4 13.0 0.00 0.00 0.00 54 1014.6
20260906111351 87 241 14.8 16.5 0.00 0.00 0.00 55 1014.9
20260906110411 87 272 5.2 6.1 0.00 0.00 0.00 52 1014.9
20260906105851 87 243 13.9 16.5 0.00 0.00 0.00 54 1014.9
20260906105351 87 288 11.3 12.2 0.00 0.00 0.00 53 1014.9
20260906104852 87 270 12.2 13.9 0.00 0.00 0.00 54 1014.9
20260906104351 87 282 18.2 20.0 0.00 0.00 0.00 54 1014.9
20260906103852 87 252 14.8 17.4 0.00 0.00 0.00 53 1014.6
20260906102851 87 204 13.0 15.6 0.00 0.00 0.00 55 1014.6
20260906102351 86 275 16.5 17.4 0.00 0.00 0.00 56 1014.9
20260906101852 86 263 16.5 18.2 0.00 0.00 0.00 56 1014.9
20260906101351 87 285 9.6 9.6 0.00 0.00 0.00 55 1014.6
20260906100851 86 276 14.8 17.4 0.00 0.00 0.00 56 1014.9
20260906100351 87 244 8.7 9.6 0.00 0.00 0.00 54 1014.9
20260906095851 87 272 14.8 18.2 0.00 0.00 0.00 54 1014.9
20260906095351 87 206 5.2 6.1 0.00 0.00 0.00 52 1014.9
20260906094851 87 349 1.7 1.7 0.00 0.00 0.00 53 1015.2
20260906094352 87 162 4.3 4.3 0.00 0.00 0.00 52 1015.2
20260906093851 86 294 10.4 12.2 0.00 0.00 0.00 54 1015.2
20260906093352 86 303 14.8 17.4 0.00 0.00 0.00 55 1015.6
20260906092851 86 318 7.8 9.6 0.00 0.00 0.00 55 1015.6
20260906092352 86 287 7.8 8.7 0.00 0.00 0.00 55 1015.2
20260906091851 86 292 11.3 13.0 0.00 0.00 0.00 55 1015.6
20260906091351 86 185 9.6 13.0 0.00 0.00 0.00 56 1015.6
20260906090852 86 263 8.7 9.6 0.00 0.00 0.00 55 1015.6
20260906090352 86 276 17.4 18.2 0.00 0.00 0.00 58 1015.6
20260906085851 86 313 11.3 12.2 0.00 0.00 0.00 57 1015.6
20260906085351 86 303 6.1 7.0 0.00 0.00 0.00 57 1015.9
20260906084851 86 270 11.3 12.2 0.00 0.00 0.00 55 1015.9
20260906084351 86 264 13.9 17.4 0.00 0.00 0.00 56 1015.9
20260906083852 86 282 9.6 10.4 0.00 0.00 0.00 56 1015.9
20260906083352 86 191 7.8 7.8 0.00 0.00 0.00 57 1015.6
20260906082851 85 306 13.9 16.5 0.00 0.00 0.00 57 1015.6
20260906082351 86 300 6.1 7.0 0.00 0.00 0.00 56 1015.9
20260906081853 86 311 7.8 7.8 0.00 0.00 0.00 56 1015.6
20260906081351 86 282 9.6 11.3 0.00 0.00 0.00 55 1015.6
20260906080852 86 282 13.9 17.4 0.00 0.00 0.00 56 1015.9
20260906080351 86 262 7.8 7.8 0.00 0.00 0.00 57 1015.9
20260906075851 86 234 13.0 14.8 0.00 0.00 0.00 56 1015.9
20260906075351 86 282 7.0 7.0 0.00 0.00 0.00 57 1016.3
20260906074852 86 204 8.7 9.6 0.00 0.00 0.00 57 1016.3
20260906074351 85 259 14.8 17.4 0.00 0.00 0.00 57 1015.6
20260906073851 86 317 7.8 8.7 0.00 0.00 0.00 56 1015.6
20260906073351 86 251 10.4 13.0 0.00 0.00 0.00 56 1015.6
20260906072851 85 271 13.0 13.9 0.00 0.00 0.00 56 1015.6
20260906072351 85 293 9.6 12.2 0.00 0.00 0.00 56 1015.6
20260906071851 85 292 13.0 14.8 0.00 0.00 0.00 56 1015.6
20260906071351 85 282 11.3 13.0 0.00 0.00 0.00 55 1015.9
20260906070852 85 306 9.6 13.0 0.00 0.00 0.00 57 1015.9
20260906070352 86 270 10.4 13.9 0.00 0.00 0.00 55 1015.6
20260906065852 85 287 11.3 13.0 0.00 0.00 0.00 56 1015.9
20260906065351 85 257 15.6 17.4 0.00 0.00 0.00 56 1015.6
20260906064851 84 265 11.3 13.0 0.00 0.00 0.00 58 1015.6
20260906064352 84 276 11.3 12.2 0.00 0.00 0.00 58 1015.6
20260906063851 84 227 8.7 9.6 0.00 0.00 0.00 59 1015.6
20260906063351 84 244 12.2 15.6 0.00 0.00 0.00 60 1015.6
20260906062419 84 252 11.3 13.0 0.00 0.00 0.00 60 1015.6
20260906061851 84 228 3.5 4.3 0.00 0.00 0.00 60 1015.6
20260906061351 83 191 13.9 16.5 0.00 0.00 0.00 60 1015.6
20260906060851 83 252 7.0 7.0 0.00 0.00 0.00 61 1015.9
20260906060351 83 257 8.7 11.3 0.00 0.00 0.00 60 1015.6
20260906055851 83 286 12.2 13.9 0.00 0.00 0.00 61 1015.9
20260906055351 83 262 13.9 15.6 0.00 0.00 0.00 61 1015.9
20260906054852 83 288 9.6 12.2 0.00 0.00 0.00 61 1015.9
20260906054351 83 245 15.6 17.4 0.00 0.00 0.00 61 1015.9
20260906053852 82 277 13.9 15.6 0.00 0.00 0.00 61 1015.6
20260906053351 82 278 7.0 7.0 0.00 0.00 0.00 62 1015.6
20260906052852 82 324 9.6 10.4 0.00 0.00 0.00 62 1015.6
20260906052351 82 260 11.3 14.8 0.00 0.00 0.00 62 1015.6
20260906051851 82 288 12.2 14.8 0.00 0.00 0.00 62 1015.6
20260906051351 82 258 15.6 17.4 0.00 0.00 0.00 63 1015.6
20260906050852 81 315 7.0 7.8 0.00 0.00 0.00 63 1015.6
20260906050352 81 191 9.6 12.2 0.00 0.00 0.00 64 1015.2
20260906045852 81 309 12.2 13.0 0.00 0.00 0.00 65 1015.6
20260906045351 81 252 9.6 9.6 0.00 0.00 0.00 64 1015.6
20260906044852 81 288 6.1 6.1 0.00 0.00 0.00 63 1015.2
20260906044351 81 282 6.1 6.1 0.00 0.00 0.00 62 1015.2
20260906043852 81 276 6.1 7.0 0.00 0.00 0.00 62 1015.6
20260906043352 81 246 4.3 5.2 0.00 0.00 0.00 62 1015.2
20260906042852 81 222 7.8 7.8 0.00 0.00 0.00 62 1015.6
20260906042351 81 262 4.3 4.3 0.00 0.00 0.00 63 1015.6
20260906041852 80 300 7.8 8.7 0.00 0.00 0.00 64 1015.2
20260906041352 80 265 3.5 4.3 0.00 0.00 0.00 64 1015.6
20260906040852 81 342 9.6 11.3 0.00 0.00 0.00 64 1015.2
20260906040351 81 6 4.3 4.3 0.00 0.00 0.00 64 1015.2
20260906035851 81 288 5.2 6.1 0.00 0.00 0.00 65 1015.6
20260906035351 81 246 7.8 8.7 0.00 0.00 0.00 65 1015.6
20260906034852 81 288 9.6 11.3 0.00 0.00 0.00 65 1015.6
20260906034351 81 264 5.2 6.1 0.00 0.00 0.00 65 1015.6
20260906033852 81 162 10.4 12.2 0.00 0.00 0.00 65 1015.6
20260906033352 81 233 11.3 13.0 0.00 0.00 0.00 65 1015.6
20260906032852 81 253 2.6 2.6 0.00 0.00 0.00 65 1015.6
20260906032353 81 247 9.6 10.4 0.00 0.00 0.00 65 1015.6
20260906031851 81 282 7.0 7.0 0.00 0.00 0.00 66 1015.2
20260906031351 81 282 3.5 4.3 0.00 0.00 0.00 65 1015.2
20260906030851 80 294 1.7 1.7 0.00 0.00 0.00 65 1015.6
20260906030351 81 212 5.2 6.1 0.00 0.00 0.00 64 1015.6
20260906025851 81 312 4.3 4.3 0.00 0.00 0.00 64 1015.2
20260906025352 80 199 2.6 2.6 0.00 0.00 0.00 64 1015.6
20260906024852 80 259 2.6 2.6 0.00 0.00 0.00 66 1015.6
20260906024352 80 298 2.6 2.6 0.00 0.00 0.00 66 1015.2
20260906023852 80 278 8.7 11.3 0.00 0.00 0.00 66 1015.2
20260906023352 80 267 4.3 5.2 0.00 0.00 0.00 65 1015.6
20260906022852 80 315 4.3 4.3 0.00 0.00 0.00 65 1015.2
20260906022353 80 34 1.7 1.7 0.00 0.00 0.00 64 1015.6
20260906021852 80 282 2.6 2.6 0.00 0.00 0.00 64 1015.2
20260906021351 80 318 1.7 1.7 0.00 0.00 0.00 64 1015.2
20260906020851 80 360 2.6 2.6 0.00 0.00 0.00 65 1015.6
20260906020351 80 270 2.6 2.6 0.00 0.00 0.00 65 1015.6
20260906015851 80 118 2.6 2.6 0.00 0.00 0.00 65 1015.6
20260906015351 80 264 6.1 6.1 0.00 0.00 0.00 64 1015.6
20260906014853 80 174 2.6 2.6 0.00 0.00 0.00 65 1015.6
20260906014351 80 318 1.7 1.7 0.00 0.00 0.00 66 1015.2
20260906013851 80 352 3.5 3.5 0.00 0.00 0.00 66 1015.2
20260906013352 80 218 0.0 0.0 0.00 0.00 0.00 66 1015.6
20260906012851 80 319 0.9 0.9 0.00 0.00 0.00 66 1015.2
20260906012352 80 84 2.6 2.6 0.00 0.00 0.00 66 1015.2
20260906011855 80 106 7.0 7.0 0.00 0.00 0.00 65 1015.2
20260906011352 80 287 4.3 4.3 0.00 0.00 0.00 64 1015.2
20260906010851 80 8 2.6 2.6 0.00 0.00 0.00 67 1015.2
20260906010352 80 59 2.6 2.6 0.00 0.00 0.00 66 1015.2
20260906005852 80 92 0.9 0.9 0.00 0.00 0.00 66 1015.6
20260906005352 80 122 1.7 1.7 0.00 0.00 0.00 65 1015.2
20260906004851 81 7 3.5 4.3 0.00 0.00 0.00 65 1015.6
20260906004351 81 276 4.3 5.2 0.00 0.00 0.00 64 1015.6
20260906003852 81 56 1.7 1.7 0.00 0.00 0.00 62 1015.2
20260906003351 81 282 11.3 13.9 0.00 0.00 0.00 63 1015.2
20260906002851 81 324 6.1 7.0 0.00 0.00 0.00 63 1015.2
20260906002351 81 223 1.7 1.7 0.00 0.00 0.00 62 1015.2
20260906001853 81 343 3.5 4.3 0.00 0.00 0.00 61 1015.2
20260906001351 81 102 3.5 3.5 0.00 0.00 0.00 60 1015.2
20260906000851 81 265 16.5 18.2 0.00 0.00 0.00 61 1015.2
20260906000351 81 350 8.7 9.6 0.00 0.00 0.00 61 1015.2
20260905235852 81 276 12.2 13.9 0.00 0.00 0.00 61 1015.2
20260905235356 81 288 8.7 9.6 0.00 0.00 0.00 62 1015.2
20260905234852 81 276 11.3 12.2 0.00 0.00 0.00 62 1015.2
20260905234351 81 318 4.3 6.1 0.00 0.00 0.00 62 1015.2
20260905233851 81 271 7.8 8.7 0.00 0.00 0.00 62 1015.2
20260905233351 81 226 7.8 9.6 0.00 0.00 0.00 61 1015.2
20260905232851 81 253 10.4 12.2 0.00 0.00 0.00 60 1015.2
20260905232351 82 260 7.0 7.0 0.00 0.00 0.00 59 1015.2
20260905231852 82 288 8.7 9.6 0.00 0.00 0.00 59 1015.2
20260905231352 82 300 7.0 7.0 0.00 0.00 0.00 58 1015.2
20260905230902 82 354 8.7 9.6 0.00 0.00 0.00 58 1015.2
20260905230351 82 311 7.8 8.7 0.00 0.00 0.00 58 1015.2
20260905225853 82 282 17.4 18.2 0.00 0.00 0.00 58 1015.2
20260905225352 82 230 4.3 4.3 0.00 0.00 0.00 59 1015.2
20260905224851 82 324 10.4 13.0 0.00 0.00 0.00 58 1015.2
20260905224351 82 318 5.2 6.1 0.00 0.00 0.00 60 1015.6
20260905223851 81 312 7.0 7.0 0.00 0.00 0.00 60 1015.6
20260905223351 81 294 9.6 13.0 0.00 0.00 0.00 61 1015.6
20260905222852 81 294 2.6 2.6 0.00 0.00 0.00 61 1015.9
20260905222351 81 330 8.7 10.4 0.00 0.00 0.00 60 1015.9
20260905221851 81 347 6.1 7.0 0.00 0.00 0.00 61 1015.9
20260905221352 81 311 13.0 16.5 0.00 0.00 0.00 60 1015.6
20260905220851 81 322 7.8 9.6 0.00 0.00 0.00 60 1015.9
20260905220351 81 256 5.2 6.1 0.00 0.00 0.00 61 1015.9
20260905215851 81 318 6.1 6.1 0.00 0.00 0.00 60 1015.9
20260905215352 82 288 3.5 3.5 0.00 0.00 0.00 60 1015.9
20260905214851 81 251 12.2 13.0 0.00 0.00 0.00 59 1015.9
20260905214352 82 282 7.8 9.6 0.00 0.00 0.00 60 1015.9
20260905213851 82 282 9.6 9.6 0.00 0.00 0.00 60 1015.9
20260905213351 82 263 11.3 12.2 0.00 0.00 0.00 60 1015.9
20260905212852 82 277 7.0 7.8 0.00 0.00 0.00 60 1015.9
20260905212351 82 246 14.8 17.4 0.00 0.00 0.00 60 1016.3
20260905211851 82 316 7.8 8.7 0.00 0.00 0.00 60 1015.9
20260905211351 82 292 7.0 7.8 0.00 0.00 0.00 59 1016.3
20260905210852 82 264 4.3 4.3 0.00 0.00 0.00 59 1016.3
20260905210351 81 212 6.1 7.0 0.00 0.00 0.00 59 1016.3
20260905205851 81 211 7.0 7.8 0.00 0.00 0.00 60 1016.3
20260905205351 81 257 7.0 7.0 0.00 0.00 0.00 59 1016.3
20260905204851 81 258 8.7 10.4 0.00 0.00 0.00 58 1016.3
20260905204351 81 333 7.0 7.8 0.00 0.00 0.00 57 1016.3
20260905203853 81 239 7.8 8.7 0.00 0.00 0.00 57 1016.3
20260905203351 81 213 8.7 10.4 0.00 0.00 0.00 56 1015.9
20260905202851 81 294 8.7 10.4 0.00 0.00 0.00 60 1016.3
20260905202351 81 282 11.3 12.2 0.00 0.00 0.00 61 1016.3
20260905201852 81 282 9.6 13.0 0.00 0.00 0.00 59 1016.3
20260905201351 82 318 7.8 8.7 0.00 0.00 0.00 58 1016.3
20260905200851 82 131 2.6 2.6 0.00 0.00 0.00 59 1016.3
20260905200351 82 217 4.3 4.3 0.00 0.00 0.00 58 1016.3
20260905195852 82 287 1.7 1.7 0.00 0.00 0.00 59 1015.9
20260905195351 81 282 4.3 4.3 0.00 0.00 0.00 58 1016.3
20260905194851 82 244 10.4 13.0 0.00 0.00 0.00 59 1016.3
20260905194352 82 342 1.7 1.7 0.00 0.00 0.00 59 1016.3
20260905193851 82 211 3.5 4.3 0.00 0.00 0.00 61 1015.9
20260905193351 82 233 7.0 7.8 0.00 0.00 0.00 62 1015.9
20260905192851 81 42 1.7 1.7 0.00 0.00 0.00 58 1015.6
20260905192352 81 331 8.7 9.6 0.00 0.00 0.00 64 1015.9
20260905191851 81 300 7.8 8.7 0.00 0.00 0.00 64 1015.9
20260905191351 81 282 4.3 4.3 0.00 0.00 0.00 65 1015.6
20260905190852 81 255 6.1 6.1 0.00 0.00 0.00 66 1015.9
20260905190351 81 294 10.4 12.2 0.00 0.00 0.00 66 1015.9
20260905185851 81 271 7.8 7.8 0.00 0.00 0.00 66 1015.9
20260905185351 81 264 12.2 13.0 0.00 0.00 0.00 65 1015.6
20260905184851 82 300 7.8 9.6 0.00 0.00 0.00 65 1015.9
20260905184351 82 276 13.0 14.8 0.00 0.00 0.00 67 1015.6
20260905183851 82 306 12.2 13.0 0.00 0.00 0.00 66 1015.6
20260905183352 81 276 12.2 13.0 0.00 0.00 0.00 66 1015.9
20260905182851 81 292 12.2 13.0 0.00 0.00 0.00 68 1015.9
20260905182352 82 282 7.8 7.8 0.00 0.00 0.00 68 1015.9
20260905181851 82 288 9.6 13.0 0.00 0.00 0.00 67 1015.9
20260905181352 82 263 12.2 14.8 0.00 0.00 0.00 67 1016.3
20260905180851 82 298 4.3 4.3 0.00 0.00 0.00 68 1016.3
20260905180352 82 270 3.5 4.3 0.00 0.00 0.00 68 1015.9
20260905175852 82 288 9.6 12.2 0.00 0.00 0.00 69 1015.9
20260905175353 82 292 5.2 6.1 0.00 0.00 0.00 69 1015.9
20260905174851 82 282 11.3 14.8 0.00 0.00 0.00 68 1015.9
20260905174351 82 293 7.8 9.6 0.00 0.00 0.00 68 1015.9
20260905173852 82 273 9.6 12.2 0.00 0.00 0.00 68 1015.6
20260905173351 82 258 7.8 7.8 0.00 0.00 0.00 67 1015.9
20260905172852 82 276 9.6 10.4 0.00 0.00 0.00 68 1015.6
20260905172352 82 282 15.6 18.2 0.00 0.00 0.00 68 1015.6
20260905171852 82 320 6.1 6.1 0.00 0.00 0.00 68 1015.6
20260905171351 82 282 13.0 15.6 0.00 0.00 0.00 68 1015.6
20260905170852 83 288 9.6 12.2 0.00 0.00 0.00 67 1015.6
20260905170351 83 270 6.1 6.1 0.00 0.00 0.00 67 1015.2
20260905165854 83 286 7.0 7.0 0.00 0.00 0.00 65 1015.6
20260905165352 83 300 4.3 4.3 0.00 0.00 0.00 66 1015.2
20260905164852 83 239 7.0 7.0 0.00 0.00 0.00 67 1014.9
20260905164351 83 338 7.8 9.6 0.00 0.00 0.00 68 1015.2
20260905163852 83 288 7.8 9.6 0.00 0.00 0.00 67 1015.2
20260905163352 83 304 3.5 3.5 0.00 0.00 0.00 67 1015.2
20260905162852 83 252 8.7 9.6 0.00 0.00 0.00 67 1014.9
20260905162352 83 270 12.2 13.0 0.00 0.00 0.00 66 1014.9
20260905161851 84 234 3.5 3.5 0.00 0.00 0.00 66 1015.2
20260905161351 84 286 6.1 6.1 0.00 0.00 0.00 66 1015.2
20260905160851 84 271 5.2 6.1 0.00 0.00 0.00 66 1015.2
20260905160352 84 276 7.0 7.0 0.00 0.00 0.00 66 1014.9
20260905155851 84 282 7.8 8.7 0.00 0.00 0.00 66 1015.2
20260905155352 84 303 8.7 9.6 0.00 0.00 0.00 64 1014.9
20260905154851 84 263 9.6 12.2 0.00 0.00 0.00 65 1014.9
20260905154351 85 251 10.4 12.2 0.00 0.00 0.00 65 1014.9
20260905153852 85 282 13.0 13.9 0.00 0.00 0.00 64 1014.9
20260905153351 85 252 7.8 9.6 0.00 0.00 0.00 63 1014.9
20260905152851 85 276 10.4 13.0 0.00 0.00 0.00 63 1014.9
20260905152351 86 288 7.0 7.0 0.00 0.00 0.00 63 1015.2
20260905151851 86 291 15.6 17.4 0.00 0.00 0.00 62 1015.2
20260905151351 86 268 13.9 15.6 0.00 0.00 0.00 62 1014.9
20260905150851 87 276 11.3 13.0 0.00 0.00 0.00 61 1014.9
20260905150352 86 277 7.8 9.6 0.00 0.00 0.00 61 1014.9
20260905145852 86 338 7.8 7.8 0.00 0.00 0.00 60 1014.9
20260905145351 86 210 11.3 12.2 0.00 0.00 0.00 59 1014.9
20260905144852 86 282 7.8 7.8 0.00 0.00 0.00 59 1014.9
20260905144351 86 275 9.6 12.2 0.00 0.00 0.00 59 1014.9
20260905143851 86 252 9.6 11.3 0.00 0.00 0.00 59 1014.9
20260905143351 86 230 14.8 17.4 0.00 0.00 0.00 59 1014.9
20260905142851 86 282 15.6 17.4 0.00 0.00 0.00 60 1014.9
20260905142352 86 270 11.3 13.0 0.00 0.00 0.00 58 1014.6
20260905141852 86 332 16.5 18.2 0.00 0.00 0.00 58 1014.6
20260905141351 86 294 7.0 7.0 0.00 0.00 0.00 57 1014.9
20260905140851 86 276 4.3 4.3 0.00 0.00 0.00 57 1014.6
20260905140353 87 276 7.0 7.0 0.00 0.00 0.00 57 1014.9
20260905135852 87 252 9.6 13.0 0.00 0.00 0.00 57 1014.6
20260905135352 87 294 7.8 9.6 0.00 0.00 0.00 56 1014.6
20260905134851 87 310 7.0 7.8 0.00 0.00 0.00 57 1014.6
20260905134352 87 264 14.8 16.5 0.00 0.00 0.00 57 1014.9
20260905133851 87 258 9.6 11.3 0.00 0.00 0.00 57 1014.9
20260905133351 87 234 9.6 11.3 0.00 0.00 0.00 57 1014.6
20260905132851 87 301 12.2 13.9 0.00 0.00 0.00 56 1014.6
20260905132352 87 245 12.2 13.0 0.00 0.00 0.00 56 1014.6
20260905131854 88 271 12.2 14.8 0.00 0.00 0.00 56 1014.6
20260905131351 87 282 10.4 12.2 0.00 0.00 0.00 56 1014.6
20260905130851 87 256 7.0 7.0 0.00 0.00 0.00 56 1014.6
20260905130351 87 252 8.7 9.6 0.00 0.00 0.00 57 1014.6
20260905125851 87 258 13.0 13.9 0.00 0.00 0.00 54 1014.6
20260905125351 87 314 12.2 15.6 0.00 0.00 0.00 56 1014.6
20260905124851 87 307 9.6 9.6 0.00 0.00 0.00 56 1014.6
20260905124352 87 286 15.6 17.4 0.00 0.00 0.00 56 1014.6
20260905123851 87 259 14.8 16.5 0.00 0.00 0.00 57 1014.9
20260905123351 87 228 7.0 7.0 0.00 0.00 0.00 55 1014.6